Location: Newark
(48.5667°N, 3.3000°E)
Time: 07:04:17
(UTC+00:00)

Envisat - Visible Passes

Search period start: 19 October 2019 00:00
Search period end: 29 October 2019 00:00
Orbit: 764 x 766 km, 98.1° (Epoch: 19 October)

Date Brightness Start Highest point End Pass type
(mag) Time Alt. Az. Time Alt. Az. Time Alt. Az.
19 Oct 6.5 05:14:12 10° ENE 05:15:57 12° E 05:17:40 10° ESE visible
19 Oct 3.8 18:09:09 10° S 18:14:07 54° W 18:19:07 10° NNW visible
20 Oct 3.0 17:32:15 10° SSE 17:37:19 75° ENE 17:42:25 10° N visible
20 Oct 5.9 19:13:44 10° SW 19:16:55 16° W 19:20:06 10° NW visible
21 Oct 6.0 05:38:08 10° NE 05:41:49 20° E 05:45:27 10° SE visible
21 Oct 4.8 18:35:13 10° SSW 18:39:46 33° W 18:44:22 10° NNW visible
22 Oct 3.4 17:57:46 10° S 18:02:49 68° WSW 18:07:55 10° NNW visible
23 Oct 3.0 17:21:05 10° SSE 17:26:04 61° ENE 17:31:06 10° N visible
23 Oct 5.6 19:01:47 10° SW 19:05:31 20° W 19:09:16 10° NW visible
24 Oct 6.2 05:27:19 10° NE 05:30:24 16° E 05:33:28 10° SE visible
24 Oct 4.4 18:23:39 10° SSW 18:28:26 41° W 18:33:15 10° NNW visible
25 Oct 3.1 17:46:27 10° SSE 17:51:32 83° WSW 17:56:40 10° NNW visible
25 Oct 6.2 19:29:26 10° WSW 19:31:22 12° W 19:33:19 10° WNW visible
26 Oct 5.6 05:51:56 10° NE 05:56:12 26° E 06:00:25 10° SSE visible
26 Oct 3.2 17:09:58 10° SE 17:14:51 50° ENE 17:19:46 10° N visible
26 Oct 5.3 18:50:00 10° SSW 18:54:08 25° W 18:58:19 10° NW visible
27 Oct 6.3 05:16:45 10° ENE 05:18:58 13° E 05:21:12 10° ESE visible
27 Oct 3.9 18:12:11 10° S 18:17:06 50° W 18:22:04 10° NNW visible
28 Oct 2.9 17:35:12 10° SSE 17:40:17 81° ENE 17:45:24 10° NNW visible
28 Oct 6.0 19:17:02 10° WSW 19:19:57 15° W 19:22:52 10° NW visible
